���t,����,�O�C���x,�����t���O,�O�C���Ύ��x,�����t���O,���ԋ�C���x,�����t���O,���ԑ��Ύ��x,�����t���O,�g�C���^���N����,�����t���O,���֋�C���x,�����t���O,��󒲎����x,�����t���O
2004/8/1,0:00,27.2,0,82,0,28,0,60.2,0,30.1,0,29.4,0,29.6,0
2004/8/1,0:15,27.1,0,81,0,28.1,0,61.6,0,30.1,0,29.3,0,29.6,0
2004/8/1,0:30,27.1,0,81,0,28.1,0,60.3,0,30.1,0,29.3,0,29.6,0
2004/8/1,0:45,27.1,0,82,0,28.1,0,60.9,0,30.1,0,29.2,0,29.5,0
2004/8/1,1:00,26.7,0,86,0,28.3,0,61.3,0,30.1,0,29.2,0,29.5,0
2004/8/1,1:15,26.6,0,87,0,28.5,0,61.9,0,30.1,0,29.2,0,29.4,0
2004/8/1,1:30,26.3,0,88,0,28.6,0,62.6,0,30.1,0,29.2,0,29.4,0
2004/8/1,1:45,26.3,0,88,0,28.7,0,63.1,0,30.2,0,29.1,0,29.4,0
2004/8/1,2:00,26.5,0,89,0,28.8,0,63.7,0,30.2,0,29.1,0,29.3,0
2004/8/1,2:15,26.5,0,89,0,28.9,0,64.4,0,30.2,0,29.1,0,29.3,0
2004/8/1,2:30,26.5,0,88,0,28.9,0,65.5,0,28.5,0,29.1,0,29.3,0
2004/8/1,2:45,26.5,0,87,0,29,0,68.1,0,28.5,0,29,0,29.2,0
2004/8/1,3:00,26.5,0,87,0,29.1,0,68.6,0,28,0,29,0,29.2,0
2004/8/1,3:15,26.4,0,87,0,29.2,0,69.1,0,28,0,29,0,29.1,0
2004/8/1,3:30,26.5,0,88,0,29.2,0,67.6,0,28,0,29,0,29.1,0
2004/8/1,3:45,26.3,0,89,0,29.2,0,67.7,0,28.1,0,29,0,29.1,0
2004/8/1,4:00,26.1,0,90,0,29.1,0,68.1,0,28.1,0,28.9,0,29.1,0
2004/8/1,4:15,26.1,0,92,0,29.1,0,68.3,0,28.2,0,28.9,0,29,0
2004/8/1,4:30,26.1,0,92,0,29.1,0,68.6,0,28.2,0,28.9,0,29,0
2004/8/1,4:45,26.1,0,92,0,29.1,0,68.8,0,28.3,0,28.9,0,29,0
2004/8/1,5:00,26,0,92,0,29,0,69,0,28.3,0,28.8,0,28.9,0
2004/8/1,5:15,25.9,0,93,0,29,0,69,0,28.4,0,28.8,0,28.9,0
2004/8/1,5:30,25.7,0,94,0,29,0,69,0,28.4,0,28.8,0,28.9,0
2004/8/1,5:45,25.3,0,95,0,29,0,69,0,28.4,0,28.8,0,28.8,0
2004/8/1,6:00,25.2,0,94,0,29,0,69.1,0,28.5,0,28.7,0,28.8,0
2004/8/1,6:15,25.2,0,95,0,28.9,0,69.1,0,28.5,0,28.7,0,28.7,0
2004/8/1,6:30,25.2,0,95,0,28.9,0,69.3,0,28.5,0,28.7,0,28.7,0
2004/8/1,6:45,25.2,0,95,0,28.9,0,69.2,0,28.6,0,28.6,0,28.6,0
2004/8/1,7:00,25.2,0,96,0,28.9,0,69.2,0,28.6,0,28.6,0,28.6,0
2004/8/1,7:15,25.1,0,95,0,28.8,0,69.5,0,28.6,0,28.6,0,28.5,0
2004/8/1,7:30,25.1,0,96,0,28.8,0,69.4,0,28.6,0,28.6,0,28.5,0
2004/8/1,7:45,25.2,0,94,0,28.8,0,69.5,0,28.7,0,28.5,0,28.5,0
2004/8/1,8:00,25.2,0,92,0,28.7,0,69.7,0,28.7,0,28.5,0,28.4,0
2004/8/1,8:15,25.3,0,90,0,28.8,0,69.7,0,28.7,0,28.5,0,28.4,0
2004/8/1,8:30,25.3,0,90,0,28.7,0,69.6,0,28.7,0,28.4,0,28.4,0
2004/8/1,8:45,25.3,0,90,0,28.7,0,69.9,0,28.8,0,28.4,0,28.4,0
2004/8/1,9:00,25.3,0,90,0,28.7,0,69.8,0,28.8,0,28.4,0,28.3,0
2004/8/1,9:15,25.3,0,91,0,28.6,0,69.4,0,28.8,0,28.3,0,28.3,0
2004/8/1,9:30,25.2,0,92,0,28.6,0,70.4,0,28.8,0,28.3,0,28.2,0
2004/8/1,9:45,25.4,0,91,0,28.7,0,70.7,0,27.8,0,28.3,0,28.2,0
2004/8/1,10:00,25.5,0,89,0,28.7,0,71.3,0,28.2,0,28.3,0,28.2,0
2004/8/1,10:15,25.4,0,91,0,28.8,0,71.6,0,28.2,0,28.3,0,28.2,0
2004/8/1,10:30,25.4,0,90,0,28.8,0,72.2,0,28.2,0,28.3,0,28.2,0
2004/8/1,10:45,25.4,0,90,0,28.9,0,72.1,0,28.3,0,28.3,0,28.2,0
2004/8/1,11:00,25.6,0,89,0,28.9,0,72.8,0,28,0,28.3,0,28.2,0
2004/8/1,11:15,25.6,0,89,0,28.8,0,72.3,0,28,0,28.3,0,28.2,0
2004/8/1,11:30,25.5,0,90,0,28.8,0,73,0,27.9,0,28.3,0,28.1,0
2004/8/1,11:45,25.6,0,89,0,28.8,0,73.6,0,27.9,0,28.3,0,28.1,0
2004/8/1,12:00,25.7,0,89,0,28.8,0,74.4,0,28,0,28.3,0,28.1,0
2004/8/1,12:15,25.4,0,92,0,28.8,0,74,0,28,0,28.3,0,28.2,0
2004/8/1,12:30,25.4,0,91,0,28.8,0,74.1,0,28.1,0,28.3,0,28.1,0
2004/8/1,12:45,25.5,0,88,0,28.8,0,74.3,0,28.1,0,28.3,0,28.1,0
2004/8/1,13:00,25.8,0,85,0,28.8,0,74.5,0,28.1,0,28.3,0,28.1,0
2004/8/1,13:15,25.9,0,85,0,28.7,0,74.5,0,28.2,0,28.3,0,28.1,0
2004/8/1,13:30,25.9,0,85,0,28.7,0,74.5,0,28.2,0,28.3,0,28.1,0
2004/8/1,13:45,25.9,0,85,0,28.7,0,74.5,0,28.2,0,28.3,0,28.1,0
2004/8/1,14:00,25.9,0,86,0,28.7,0,74.6,0,28.3,0,28.2,0,28.1,0
2004/8/1,14:15,26.2,0,86,0,28.7,0,74.5,0,28.3,0,28.2,0,28.1,0
2004/8/1,14:30,26.8,0,82,0,28.7,0,74.4,0,28.3,0,28.2,0,28.2,0
2004/8/1,14:45,27.1,0,80,0,28.8,0,74,0,28.4,0,28.2,0,28.3,0
2004/8/1,15:00,26.8,0,87,0,28.8,0,74,0,28.4,0,28.3,0,28.4,0
2004/8/1,15:15,26.4,0,89,0,28.8,0,74.1,0,28.4,0,28.3,0,28.5,0
2004/8/1,15:30,26.2,0,90,0,28.8,0,74.4,0,28.4,0,28.2,0,28.5,0
2004/8/1,15:45,26.3,0,90,0,28.8,0,74.6,0,28.5,0,28.3,0,28.5,0
2004/8/1,16:00,26.3,0,87,0,28.8,0,74.8,0,28.5,0,28.2,0,28.6,0
2004/8/1,16:15,26.4,0,84,0,28.8,0,74.8,0,28.5,0,28.3,0,28.6,0
2004/8/1,16:30,26.5,0,84,0,28.8,0,74.8,0,28.5,0,28.3,0,28.6,0
2004/8/1,16:45,26.6,0,86,0,28.8,0,74.7,0,28.6,0,28.3,0,28.7,0
2004/8/1,17:00,26.4,0,86,0,28.9,0,74.7,0,28.6,0,28.3,0,28.7,0
2004/8/1,17:15,26.5,0,87,0,28.8,0,74.7,0,28.6,0,28.3,0,28.7,0
2004/8/1,17:30,26.8,0,84,0,28.8,0,74.8,0,28.6,0,28.2,0,28.7,0
2004/8/1,17:45,27,0,83,0,28.8,0,74.7,0,28.6,0,28.3,0,28.7,0
2004/8/1,18:00,27,0,83,0,28.9,0,74.8,0,28.7,0,28.3,0,28.7,0
2004/8/1,18:15,26.8,0,84,0,28.9,0,74.7,0,28.7,0,28.3,0,28.7,0
2004/8/1,18:30,26.8,0,85,0,28.9,0,74.8,0,28.7,0,28.3,0,28.7,0
2004/8/1,18:45,26.8,0,87,0,28.8,0,74.7,0,28.7,0,28.3,0,28.7,0
2004/8/1,19:00,26.9,0,88,0,28.8,0,74.9,0,28.8,0,28.3,0,28.7,0
2004/8/1,19:15,26.7,0,87,0,28.9,0,75,0,27.8,0,28.3,0,28.7,0
2004/8/1,19:30,26.7,0,86,0,29,0,76.3,0,27.8,0,28.3,0,28.7,0
2004/8/1,19:45,26.5,0,87,0,29.2,0,76.5,0,27.8,0,28.3,0,28.6,0
2004/8/1,20:00,26.4,0,86,0,29.3,0,76.4,0,27.8,0,28.3,0,28.6,0
2004/8/1,20:15,26.2,0,85,0,29.5,0,76.7,0,27.9,0,28.3,0,28.5,0
2004/8/1,20:30,26,0,85,0,29.5,0,76,0,27.9,0,28.3,0,28.5,0
2004/8/1,20:45,26,0,85,0,29.5,0,75.3,0,28,0,28.3,0,28.5,0
2004/8/1,21:00,25.9,0,86,0,29.6,0,75,0,28,0,28.3,0,28.4,0
2004/8/1,21:15,25.7,0,88,0,29.6,0,74.9,0,28,0,28.3,0,28.4,0
2004/8/1,21:30,25.5,0,87,0,29.6,0,74.6,0,28.1,0,28.3,0,28.4,0
2004/8/1,21:45,25.5,0,86,0,29.7,0,74.3,0,28.1,0,28.3,0,28.3,0
2004/8/1,22:00,25.5,0,87,0,29.7,0,74.1,0,28.1,0,28.3,0,28.3,0
2004/8/1,22:15,25.5,0,87,0,29.6,0,74.1,0,28.2,0,28.3,0,28.2,0
2004/8/1,22:30,25.7,0,84,0,29.6,0,74.1,0,28.2,0,28.3,0,28.2,0
2004/8/1,22:45,25.7,0,84,0,29.6,0,74.2,0,28.2,0,28.3,0,28.1,0
2004/8/1,23:00,25.5,0,86,0,29.6,0,74.4,0,28.2,0,28.3,0,28.1,0
2004/8/1,23:15,25.8,0,85,0,29.6,0,74.4,0,28.3,0,28.3,0,28.1,0
2004/8/1,23:30,25.6,0,86,0,29.7,0,74.3,0,28.3,0,28.3,0,28,0
2004/8/1,23:45,25.4,0,88,0,29.7,0,74,0,28.3,0,28.3,0,28,0
2004/8/2,0:00,25.4,0,89,0,29.8,0,73.5,0,27.6,0,28.3,0,28,0
2004/8/2,0:15,25.4,0,90,0,29.8,0,73.1,0,27.6,0,28.3,0,27.9,0
2004/8/2,0:30,25.4,0,89,0,29.8,0,72.7,0,27.6,0,28.3,0,27.9,0
2004/8/2,0:45,25.4,0,88,0,29.8,0,72.4,0,27.7,0,28.3,0,27.9,0
2004/8/2,1:00,25.6,0,88,0,29.8,0,72.2,0,27.7,0,28.3,0,27.9,0
2004/8/2,1:15,25.8,0,83,0,29.8,0,72.1,0,27.8,0,28.3,0,27.9,0
2004/8/2,1:30,25.8,0,86,0,29.8,0,71.9,0,27.8,0,28.3,0,27.9,0
2004/8/2,1:45,25.7,0,86,0,29.8,0,71.8,0,27.9,0,28.4,0,27.9,0
2004/8/2,2:00,25.8,0,87,0,29.7,0,71.9,0,27.2,0,28.4,0,27.9,0
2004/8/2,2:15,25.8,0,86,0,29.6,0,72,0,27.2,0,28.4,0,27.9,0
2004/8/2,2:30,25.8,0,87,0,29.6,0,72.1,0,27.2,0,28.4,0,27.8,0
2004/8/2,2:45,25.8,0,87,0,29.6,0,72.3,0,27.3,0,28.4,0,27.8,0
2004/8/2,3:00,25.7,0,87,0,29.6,0,72.4,0,27.3,0,28.4,0,27.8,0
2004/8/2,3:15,25.6,0,87,0,29.5,0,72.4,0,27.4,0,28.4,0,27.8,0
2004/8/2,3:30,25.6,0,88,0,29.5,0,72.5,0,27.4,0,28.4,0,27.8,0
2004/8/2,3:45,25.5,0,88,0,29.4,0,72.7,0,27.5,0,28.4,0,27.8,0
2004/8/2,4:00,25.7,0,86,0,29.3,0,72.8,0,27.5,0,28.4,0,27.8,0
2004/8/2,4:15,25.5,0,86,0,29.3,0,72.9,0,27.6,0,28.4,0,27.8,0
2004/8/2,4:30,25.7,0,86,0,29.3,0,72.9,0,27.6,0,28.4,0,27.8,0
2004/8/2,4:45,25.6,0,88,0,29.2,0,72.9,0,27.7,0,28.4,0,27.7,0
2004/8/2,5:00,25.7,0,89,0,29.2,0,73.1,0,27.7,0,28.4,0,27.7,0
2004/8/2,5:15,25.6,0,89,0,29.2,0,73.1,0,27.7,0,28.3,0,27.7,0
2004/8/2,5:30,25.5,0,89,0,29.1,0,73.2,0,27.8,0,28.3,0,27.7,0
2004/8/2,5:45,25.5,0,90,0,29.1,0,73.3,0,27.8,0,28.3,0,27.7,0
2004/8/2,6:00,25.4,0,91,0,29.1,0,73.3,0,27.9,0,28.3,0,27.7,0
2004/8/2,6:15,25.5,0,90,0,29,0,73.5,0,27.9,0,28.3,0,27.6,0
2004/8/2,6:30,25.5,0,90,0,29,0,73.6,0,27.9,0,28.3,0,27.6,0
2004/8/2,6:45,25.6,0,89,0,29,0,73.8,0,28,0,28.3,0,27.6,0
2004/8/2,7:00,25.7,0,89,0,29,0,74.1,0,28,0,28.3,0,27.6,0
2004/8/2,7:15,25.9,0,89,0,29,0,74.1,0,28,0,28.3,0,27.7,0
2004/8/2,7:30,26.1,0,89,0,29,0,74.1,0,28,0,28.3,0,27.7,0
2004/8/2,7:45,26.2,0,89,0,29,0,74.1,0,28.1,0,28.3,0,27.7,0
2004/8/2,8:00,26.5,0,88,0,28.9,0,73.9,0,28.1,0,28.3,0,27.8,0
2004/8/2,8:15,27,0,87,0,28.9,0,73.8,0,28.1,0,28.3,0,27.8,0
2004/8/2,8:30,27.7,0,84,0,28.9,0,73.7,0,28.2,0,28.3,0,27.9,0
2004/8/2,8:45,27.9,0,81,0,28.9,0,73.4,0,28.2,0,28.3,0,28,0
2004/8/2,9:00,28.2,0,81,0,29,0,73.4,0,28.2,0,28.3,0,28.1,0
2004/8/2,9:15,28.6,0,76,0,29,0,73.3,0,27.1,0,28.3,0,28.1,0
2004/8/2,9:30,29,0,72,0,29,0,73.5,0,27.1,0,28.3,0,28.2,0
2004/8/2,9:45,29.2,0,73,0,29,0,73.2,0,27.2,0,28.3,0,28.3,0
2004/8/2,10:00,29.3,0,75,0,29.1,0,73.1,0,27.2,0,28.3,0,28.4,0
2004/8/2,10:15,29.7,0,68,0,29.2,0,72.9,0,27.3,0,28.3,0,28.5,0
2004/8/2,10:30,30.3,0,67,0,29.2,0,73.3,0,27.3,0,28.4,0,28.6,0
2004/8/2,10:45,30.9,0,62,0,29.3,0,73.4,0,27.4,0,28.5,0,28.7,0
2004/8/2,11:00,31.6,0,59,0,29.4,0,73.6,0,27.4,0,28.5,0,28.9,0
2004/8/2,11:15,31.7,0,58,0,29.5,0,72.8,0,27.4,0,28.5,0,29,0
2004/8/2,11:30,32.2,0,58,0,29.6,0,72.6,0,27.5,0,28.6,0,29.1,0
2004/8/2,11:45,32.2,0,57,0,29.6,0,72.4,0,27.5,0,28.6,0,29.2,0
2004/8/2,12:00,32.6,0,56,0,29.7,0,72.2,0,27.6,0,28.6,0,29.3,0
2004/8/2,12:15,32.7,0,56,0,29.8,0,72.1,0,27.6,0,28.7,0,29.5,0
2004/8/2,12:30,32.4,0,60,0,29.9,0,72,0,27.7,0,28.8,0,29.6,0
2004/8/2,12:45,32.5,0,59,0,29.9,0,71.8,0,27.7,0,28.8,0,29.7,0
2004/8/2,13:00,32.4,0,60,0,30,0,72.4,0,27.8,0,28.9,0,29.8,0
2004/8/2,13:15,32,0,63,0,30.1,0,72.6,0,27.8,0,28.9,0,29.9,0
2004/8/2,13:30,31.9,0,62,0,30.2,0,72.5,0,27.9,0,29,0,30,0
2004/8/2,13:45,32,0,63,0,30.3,0,72.3,0,27.9,0,29,0,30.1,0
2004/8/2,14:00,32,0,63,0,30.3,0,72.4,0,27.9,0,29.1,0,30.2,0
2004/8/2,14:15,31.9,0,61,0,30.4,0,72.3,0,28,0,29.2,0,30.3,0
2004/8/2,14:30,31.2,0,63,0,30.5,0,72.3,0,28,0,29.2,0,30.3,0
2004/8/2,14:45,29.8,0,69,0,30.5,0,72.3,0,28.1,0,29.2,0,30.4,0
2004/8/2,15:00,26.1,0,76,0,30.5,0,72.8,0,28.1,0,29.3,0,30.4,0
2004/8/2,15:15,24.8,0,89,0,30.5,0,72.7,0,28.2,0,29.3,0,30.5,0
2004/8/2,15:30,25,0,84,0,30.5,0,72.5,0,28.2,0,29.3,0,30.4,0
2004/8/2,15:45,24.8,0,86,0,30.4,0,72.7,0,28.2,0,29.3,0,30.2,0
2004/8/2,16:00,25.4,0,86,0,30.3,0,72.7,0,27.3,0,29.3,0,30,0
2004/8/2,16:15,25.1,0,87,0,30.2,0,72.8,0,27.2,0,29.3,0,29.8,0
2004/8/2,16:30,25.1,0,87,0,30.2,0,73,0,27.3,0,29.4,0,29.8,0
2004/8/2,16:45,25.4,0,87,0,30.2,0,73,0,27,0,29.4,0,29.7,0
2004/8/2,17:00,25.3,0,88,0,30.2,0,72.9,0,27.1,0,29.4,0,29.6,0
2004/8/2,17:15,25.2,0,91,0,30.2,0,73.1,0,27.1,0,29.4,0,29.5,0
2004/8/2,17:30,25.3,0,92,0,30.1,0,73,0,27.2,0,29.4,0,29.5,0
2004/8/2,17:45,25.1,0,95,0,30,0,73.3,0,27.2,0,29.4,0,29.4,0
2004/8/2,18:00,25.1,0,97,0,29.9,0,73.3,0,27.3,0,29.4,0,29.4,0
2004/8/2,18:15,25,0,96,0,29.9,0,75.1,0,27.3,0,29.4,0,29.3,0
2004/8/2,18:30,24.9,0,95,0,29.8,0,74.8,0,27.4,0,29.4,0,29.3,0
2004/8/2,18:45,24.9,0,95,0,29.8,0,74.6,0,27.5,0,29.4,0,29.2,0
2004/8/2,19:00,25,0,96,0,29.8,0,74.5,0,27.5,0,29.4,0,29.2,0
2004/8/2,19:15,25,0,96,0,29.7,0,74.4,0,27.6,0,29.4,0,29.1,0
2004/8/2,19:30,25,0,94,0,29.7,0,74.5,0,27.7,0,29.4,0,29.1,0
2004/8/2,19:45,24.9,0,92,0,29.6,0,74.4,0,27.7,0,29.4,0,29,0
2004/8/2,20:00,24.9,0,90,0,29.6,0,74.3,0,27.8,0,29.4,0,29,0
2004/8/2,20:15,24.9,0,91,0,29.6,0,74.4,0,27.8,0,29.4,0,28.9,0
2004/8/2,20:30,24.8,0,89,0,29.5,0,74.4,0,27.9,0,29.4,0,28.9,0
2004/8/2,20:45,24.8,0,84,0,29.5,0,74.4,0,27.9,0,29.3,0,28.8,0
2004/8/2,21:00,24.8,0,80,0,29.5,0,74.4,0,28,0,29.3,0,28.8,0
2004/8/2,21:15,24.9,0,80,0,29.4,0,74.4,0,28,0,29.3,0,28.7,0
2004/8/2,21:30,24.6,0,83,0,29.4,0,74.2,0,28.1,0,29.3,0,28.7,0
2004/8/2,21:45,24.4,0,83,0,29.3,0,74.1,0,28.1,0,29.2,0,28.7,0
2004/8/2,22:00,24.5,0,84,0,29.3,0,74,0,28.2,0,29.2,0,28.6,0
2004/8/2,22:15,24.6,0,84,0,29.3,0,74,0,28.2,0,29.2,0,28.6,0
2004/8/2,22:30,24.5,0,85,0,29.2,0,74,0,28.3,0,29.1,0,28.5,0
2004/8/2,22:45,24.3,0,87,0,29.2,0,74,0,28.3,0,29.1,0,28.5,0
2004/8/2,23:00,24.3,0,87,0,29.2,0,74.1,0,28.4,0,29.1,0,28.4,0
2004/8/2,23:15,24.4,0,86,0,29.2,0,74.1,0,28.4,0,29.1,0,28.4,0
2004/8/2,23:30,24.5,0,86,0,29.1,0,74.1,0,28.4,0,29,0,28.3,0
2004/8/2,23:45,24.1,0,89,0,29.1,0,74,0,27.6,0,29,0,28.3,0
2004/8/3,0:00,23.9,0,89,0,29.1,0,74.1,0,27.6,0,29,0,28.3,0
2004/8/3,0:15,24,0,89,0,29.1,0,74.1,0,27.4,0,29,0,28.2,0
2004/8/3,0:30,23.9,0,88,0,29,0,74.4,0,27.5,0,29,0,28.2,0
2004/8/3,0:45,24.2,0,87,0,29,0,73.9,0,27.5,0,28.9,0,28.1,0
2004/8/3,1:00,24.2,0,86,0,29,0,74,0,27.5,0,28.9,0,28.1,0
2004/8/3,1:15,24.3,0,83,0,28.9,0,74.1,0,27.6,0,28.9,0,28,0
2004/8/3,1:30,24.2,0,84,0,28.8,0,73.2,0,27.1,0,28.8,0,28,0
2004/8/3,1:45,24.2,0,84,0,28.9,0,74.9,0,27.2,0,28.8,0,28,0
2004/8/3,2:00,24.1,0,86,0,28.9,0,74.8,0,27.2,0,28.8,0,27.9,0
2004/8/3,2:15,24.1,0,87,0,28.9,0,74.9,0,27.2,0,28.8,0,27.9,0
2004/8/3,2:30,23.8,0,88,0,28.9,0,74.5,0,27.3,0,28.8,0,27.9,0
2004/8/3,2:45,23.7,0,89,0,28.9,0,74.5,0,27.3,0,28.8,0,27.8,0
2004/8/3,3:00,23.7,0,88,0,28.8,0,74.4,0,27.4,0,28.7,0,27.8,0
2004/8/3,3:15,23.8,0,89,0,28.8,0,74.3,0,27.4,0,28.7,0,27.8,0
2004/8/3,3:30,23.8,0,89,0,28.8,0,74.3,0,27.5,0,28.7,0,27.7,0
2004/8/3,3:45,23.8,0,89,0,28.7,0,74.8,0,27.5,0,28.6,0,27.7,0
2004/8/3,4:00,23.7,0,90,0,28.6,0,74.7,0,27.6,0,28.6,0,27.7,0
2004/8/3,4:15,23.7,0,89,0,28.6,0,74.9,0,27.6,0,28.6,0,27.7,0
2004/8/3,4:30,23.7,0,89,0,28.5,0,75.1,0,27.7,0,28.6,0,27.6,0
2004/8/3,4:45,23.7,0,89,0,28.5,0,74.7,0,27.7,0,28.5,0,27.6,0
2004/8/3,5:00,23.7,0,89,0,28.5,0,75.1,0,27.8,0,28.5,0,27.6,0
2004/8/3,5:15,23.8,0,89,0,28.4,0,75.1,0,27.8,0,28.5,0,27.5,0
2004/8/3,5:30,23.8,0,88,0,28.4,0,75,0,27.9,0,28.4,0,27.5,0
2004/8/3,5:45,23.7,0,89,0,28.4,0,74.9,0,27.9,0,28.4,0,27.5,0
2004/8/3,6:00,23.6,0,91,0,28.4,0,75.1,0,27.9,0,28.4,0,27.5,0
2004/8/3,6:15,23.8,0,90,0,28.3,0,75.2,0,28,0,28.3,0,27.4,0
2004/8/3,6:30,23.9,0,89,0,28.3,0,75,0,28,0,28.3,0,27.4,0
2004/8/3,6:45,24,0,88,0,28.3,0,74.9,0,26.8,0,28.3,0,27.4,0
2004/8/3,7:00,24.2,0,88,0,28.3,0,74.9,0,26.8,0,28.3,0,27.4,0
2004/8/3,7:15,24.8,0,84,0,28.3,0,74.8,0,26.8,0,28.2,0,27.4,0
2004/8/3,7:30,25.5,0,80,0,28.3,0,74.8,0,26.9,0,28.2,0,27.5,0
2004/8/3,7:45,26.4,0,76,0,28.3,0,74.8,0,26.9,0,28.2,0,27.5,0
2004/8/3,8:00,27.2,0,73,0,28.3,0,74.8,0,27,0,28.2,0,27.6,0
2004/8/3,8:15,27.8,0,70,0,28.3,0,74.7,0,27,0,28.2,0,27.7,0
2004/8/3,8:30,28.3,0,70,0,28.3,0,74.6,0,27.1,0,28.1,0,27.8,0
2004/8/3,8:45,28.6,0,65,0,28.3,0,74.6,0,27.1,0,28.1,0,27.9,0
2004/8/3,9:00,28.9,0,66,0,28.3,0,74.6,0,27.2,0,28.1,0,28,0
2004/8/3,9:15,29.1,0,64,0,28.3,0,74.6,0,27.2,0,28.1,0,28.1,0
2004/8/3,9:30,29.6,0,63,0,28.5,0,74.3,0,27.2,0,28.1,0,28.2,0
2004/8/3,9:45,30,0,60,0,28.6,0,74.2,0,27.2,0,28.1,0,28.3,0
2004/8/3,10:00,30.3,0,59,0,28.8,0,74.3,0,27.3,0,28.2,0,28.4,0
2004/8/3,10:15,30.8,0,56,0,28.9,0,74.1,0,27.3,0,28.2,0,28.6,0
2004/8/3,10:30,31.4,0,56,0,29,0,74.2,0,27.3,0,28.3,0,28.7,0
2004/8/3,10:45,31.4,0,54,0,29.2,0,74.3,0,27.2,0,28.3,0,28.8,0
2004/8/3,11:00,32.1,0,53,0,29.3,0,73.7,0,27.3,0,28.4,0,29,0
2004/8/3,11:15,32.3,0,53,0,29.5,0,73.9,0,27.3,0,28.4,0,29.1,0
2004/8/3,11:30,32.1,0,55,0,29.6,0,72.8,0,27.3,0,28.5,0,29.3,0
2004/8/3,11:45,32.4,0,52,0,29.6,0,72.5,0,27.4,0,28.6,0,29.4,0
2004/8/3,12:00,32.7,0,54,0,29.7,0,72.2,0,27.4,0,28.6,0,29.5,0
2004/8/3,12:15,32.5,0,54,0,29.8,0,72,0,27.5,0,28.7,0,29.6,0
2004/8/3,12:30,32.7,0,54,0,29.9,0,71.7,0,27.5,0,28.7,0,29.8,0
2004/8/3,12:45,32.6,0,54,0,30,0,71.6,0,27.6,0,28.8,0,29.9,0
2004/8/3,13:00,32.5,0,54,0,30.1,0,71.5,0,27.6,0,28.8,0,30,0
2004/8/3,13:15,32.6,0,51,0,30.2,0,71.4,0,27.7,0,28.9,0,30.1,0
2004/8/3,13:30,32.3,0,52,0,30.2,0,71.3,0,27.7,0,28.9,0,30.3,0
2004/8/3,13:45,31.9,0,53,0,30.3,0,71.1,0,27.7,0,29,0,30.3,0
2004/8/3,14:00,31.9,0,56,0,30.3,0,71,0,27.8,0,29,0,30.4,0
2004/8/3,14:15,32,0,55,0,30.3,0,70.8,0,27.8,0,29,0,30.5,0
2004/8/3,14:30,31.8,0,57,0,30.4,0,70.6,0,27.9,0,29.1,0,30.6,0
2004/8/3,14:45,31.5,0,57,0,30.4,0,70.4,0,27.9,0,29.1,0,30.7,0
2004/8/3,15:00,31.5,0,59,0,30.5,0,70.5,0,27.9,0,29.2,0,30.7,0
2004/8/3,15:15,31.7,0,56,0,30.5,0,70.4,0,28,0,29.2,0,30.8,0
2004/8/3,15:30,31.9,0,56,0,30.6,0,70.3,0,28,0,29.2,0,30.8,0
2004/8/3,15:45,31.7,0,54,0,30.6,0,70.3,0,28.1,0,29.3,0,30.9,0
2004/8/3,16:00,31.4,0,58,0,30.6,0,70.2,0,28.1,0,29.3,0,30.9,0
2004/8/3,16:15,31.2,0,58,0,30.6,0,70.1,0,28.2,0,29.3,0,31,0
2004/8/3,16:30,31,0,59,0,30.6,0,70.1,0,28.2,0,29.4,0,31,0
2004/8/3,16:45,30.8,0,60,0,30.7,0,70.1,0,28.2,0,29.4,0,31.1,0
2004/8/3,17:00,30.6,0,61,0,30.7,0,70,0,28.3,0,29.4,0,31.2,0
2004/8/3,17:15,30.6,0,62,0,30.7,0,69.9,0,28.3,0,29.4,0,31.2,0
2004/8/3,17:30,30.6,0,62,0,30.6,0,70,0,28.4,0,29.4,0,31.2,0
2004/8/3,17:45,30.3,0,63,0,30.6,0,69.9,0,28.4,0,29.5,0,31.3,0
2004/8/3,18:00,30.3,0,63,0,30.6,0,70,0,28.4,0,29.5,0,31.3,0
2004/8/3,18:15,30.1,0,63,0,30.6,0,70,0,28.5,0,29.5,0,31.3,0
2004/8/3,18:30,30,0,63,0,30.6,0,70.1,0,28.5,0,29.5,0,31.3,0
2004/8/3,18:45,29.5,0,65,0,30.6,0,70.1,0,28.6,0,29.5,0,31.3,0
2004/8/3,19:00,29.4,0,66,0,30.6,0,70.2,0,28.6,0,29.5,0,31.3,0
2004/8/3,19:15,29.2,0,67,0,30.5,0,70.2,0,28.6,0,29.6,0,31.3,0
2004/8/3,19:30,29,0,69,0,30.5,0,70.2,0,28.7,0,29.6,0,31.2,0
2004/8/3,19:45,29,0,69,0,30.5,0,70.3,0,28.7,0,29.5,0,31.2,0
2004/8/3,20:00,28.7,0,70,0,30.4,0,70,0,27.3,0,29.6,0,31.1,0
2004/8/3,20:15,28.5,0,71,0,30.4,0,70.4,0,27.4,0,29.6,0,31,0
2004/8/3,20:30,28.4,0,72,0,30.4,0,70.7,0,27.4,0,29.6,0,30.9,0
2004/8/3,20:45,28.3,0,73,0,30.4,0,71.1,0,27.5,0,29.6,0,30.9,0
2004/8/3,21:00,28.2,0,73,0,30.4,0,71.3,0,27.5,0,29.6,0,30.8,0
2004/8/3,21:15,27.9,0,74,0,30.4,0,71.7,0,27.6,0,29.6,0,30.7,0
2004/8/3,21:30,27.8,0,74,0,30.4,0,71.6,0,27.7,0,29.6,0,30.6,0
2004/8/3,21:45,27.6,0,76,0,30.4,0,72,0,27.7,0,29.6,0,30.5,0
2004/8/3,22:00,27.2,0,77,0,30.4,0,71.9,0,27.7,0,29.6,0,30.5,0
2004/8/3,22:15,26.9,0,78,0,30.4,0,72.1,0,27.8,0,29.6,0,30.4,0
2004/8/3,22:30,27.1,0,76,0,30.4,0,72.1,0,27.9,0,29.6,0,30.3,0
2004/8/3,22:45,27,0,78,0,30.4,0,71.9,0,27.5,0,29.6,0,30.2,0
2004/8/3,23:00,26.6,0,79,0,30.4,0,72.1,0,27.5,0,29.6,0,30.2,0
2004/8/3,23:15,26.3,0,82,0,30.5,0,72.4,0,27.6,0,29.6,0,30.1,0
2004/8/3,23:30,26.2,0,82,0,30.5,0,73.5,0,27.6,0,29.6,0,30,0
2004/8/3,23:45,26.4,0,80,0,30.5,0,72.6,0,27.7,0,29.6,0,29.9,0
2004/8/4,0:00,26.2,0,82,0,30.5,0,72,0,27.2,0,29.6,0,29.9,0
2004/8/4,0:15,25.9,0,83,0,30.5,0,71.8,0,27.3,0,29.6,0,29.8,0
2004/8/4,0:30,26,0,82,0,30.5,0,71.5,0,27.3,0,29.6,0,29.8,0
2004/8/4,0:45,25.8,0,83,0,30.4,0,71.1,0,27.4,0,29.6,0,29.7,0
2004/8/4,1:00,25.4,0,84,0,30.4,0,71,0,27.4,0,29.6,0,29.6,0
2004/8/4,1:15,25.5,0,84,0,30.3,0,70.9,0,27.5,0,29.6,0,29.6,0
2004/8/4,1:30,25.5,0,84,0,30.3,0,70.8,0,27.5,0,29.6,0,29.5,0
2004/8/4,1:45,25.3,0,85,0,30.2,0,70.7,0,27.6,0,29.6,0,29.4,0
2004/8/4,2:00,25.3,0,85,0,30.2,0,70.7,0,27.6,0,29.5,0,29.4,0
2004/8/4,2:15,25.3,0,85,0,30.1,0,70.8,0,27.7,0,29.5,0,29.3,0
2004/8/4,2:30,25.2,0,86,0,30.1,0,70.6,0,27.7,0,29.5,0,29.3,0
2004/8/4,2:45,25.1,0,86,0,30,0,70.8,0,27.8,0,29.5,0,29.2,0
2004/8/4,3:00,24.8,0,87,0,29.9,0,70.6,0,27.8,0,29.4,0,29.1,0
2004/8/4,3:15,24.9,0,86,0,29.8,0,70.9,0,27.9,0,29.4,0,29.1,0
2004/8/4,3:30,24.7,0,86,0,29.8,0,71,0,27.9,0,29.4,0,29,0
2004/8/4,3:45,24.2,0,89,0,29.7,0,71.1,0,28,0,29.4,0,28.9,0
2004/8/4,4:00,24.4,0,88,0,29.6,0,71.1,0,28,0,29.4,0,28.9,0
2004/8/4,4:15,24.4,0,86,0,29.6,0,71.2,0,28.1,0,29.3,0,28.8,0
2004/8/4,4:30,24.1,0,89,0,29.5,0,71,0,28.1,0,29.3,0,28.7,0
2004/8/4,4:45,24.3,0,88,0,29.5,0,70.9,0,28.1,0,29.2,0,28.7,0
2004/8/4,5:00,24.4,0,86,0,29.5,0,70.9,0,28.2,0,29.2,0,28.6,0
2004/8/4,5:15,24.2,0,85,0,29.4,0,70.9,0,28.2,0,29.2,0,28.5,0
2004/8/4,5:30,24.1,0,85,0,29.3,0,70.8,0,28.3,0,29.2,0,28.5,0
2004/8/4,5:45,24,0,86,0,29.3,0,70.7,0,28.3,0,29.1,0,28.4,0
2004/8/4,6:00,23.9,0,89,0,29.3,0,70.4,0,28.4,0,29.1,0,28.4,0
2004/8/4,6:15,24.1,0,88,0,29.2,0,70.8,0,28.4,0,29,0,28.3,0
2004/8/4,6:30,24.2,0,86,0,29.2,0,70.9,0,28.4,0,29,0,28.3,0
2004/8/4,6:45,24.1,0,86,0,29.1,0,71.1,0,28.5,0,29,0,28.2,0
2004/8/4,7:00,24.1,0,88,0,29.1,0,70.8,0,28.5,0,28.9,0,28.2,0
2004/8/4,7:15,24.4,0,86,0,29.1,0,70.6,0,28.5,0,28.9,0,28.2,0
2004/8/4,7:30,24.7,0,84,0,29.1,0,70.3,0,27.9,0,28.9,0,28.1,0
2004/8/4,7:45,25,0,81,0,28.8,0,69.9,0,27.9,0,28.8,0,28.1,0
2004/8/4,8:00,25.2,0,81,0,28.7,0,69.6,0,28,0,28.8,0,28.1,0
2004/8/4,8:15,25.3,0,79,0,28.7,0,71.2,0,28,0,28.8,0,28.1,0
2004/8/4,8:30,25.6,0,79,0,28.7,0,71,0,28,0,28.7,0,28.2,0
2004/8/4,8:45,25.7,0,85,0,28.7,0,71.9,0,28,0,28.7,0,28.2,0
2004/8/4,9:00,25.4,0,82,0,28.8,0,73.5,0,28.1,0,28.7,0,28.3,0
2004/8/4,9:15,25.3,0,82,0,28.8,0,74.6,0,28.1,0,28.7,0,28.4,0
2004/8/4,9:30,25.5,0,82,0,28.9,0,73.2,0,27.5,0,28.7,0,28.4,0
2004/8/4,9:45,25.8,0,82,0,28.9,0,72.1,0,27.5,0,28.7,0,28.5,0
2004/8/4,10:00,26.1,0,79,0,29,0,72.4,0,27.5,0,28.6,0,28.5,0
2004/8/4,10:15,26.5,0,75,0,29,0,72,0,27.6,0,28.6,0,28.6,0
2004/8/4,10:30,26.7,0,74,0,29,0,70.9,0,27.6,0,28.6,0,28.6,0
2004/8/4,10:45,27.1,0,73,0,29.1,0,70.7,0,27.7,0,28.6,0,28.7,0
2004/8/4,11:00,27.5,0,71,0,29.2,0,70.3,0,27.7,0,28.6,0,28.8,0
2004/8/4,11:15,27.7,0,69,0,29.3,0,70.4,0,27.7,0,28.6,0,28.9,0
2004/8/4,11:30,27.8,0,70,0,29.4,0,70.3,0,27.8,0,28.7,0,28.9,0
2004/8/4,11:45,28.3,0,69,0,29.5,0,69.6,0,27.8,0,28.7,0,29,0
2004/8/4,12:00,29.1,0,66,0,29.5,0,69.4,0,27.1,0,28.7,0,29.1,0
2004/8/4,12:15,29.6,0,66,0,29.6,0,69.6,0,27.2,0,28.8,0,29.2,0
2004/8/4,12:30,30.3,0,62,0,29.7,0,70,0,27.2,0,28.8,0,29.3,0
2004/8/4,12:45,30.3,0,61,0,29.8,0,69.3,0,27,0,28.8,0,29.3,0
2004/8/4,13:00,30.6,0,61,0,29.9,0,69,0,27,0,28.9,0,29.5,0
2004/8/4,13:15,31.1,0,59,0,30,0,68.9,0,27.1,0,28.9,0,29.6,0
2004/8/4,13:30,31.4,0,58,0,30.1,0,68.7,0,27.1,0,29,0,29.7,0
2004/8/4,13:45,31.1,0,58,0,30.2,0,68.6,0,27.2,0,29,0,29.8,0
2004/8/4,14:00,31.2,0,59,0,30.3,0,68.5,0,27.2,0,29,0,29.9,0
2004/8/4,14:15,31.5,0,58,0,30.4,0,68.4,0,27.3,0,29.1,0,30,0
2004/8/4,14:30,31.9,0,56,0,30.4,0,68.4,0,27.3,0,29.1,0,30.1,0
2004/8/4,14:45,32,0,55,0,30.5,0,68.3,0,27.4,0,29.2,0,30.2,0
2004/8/4,15:00,31.9,0,56,0,30.6,0,68.3,0,27.4,0,29.2,0,30.3,0
2004/8/4,15:15,31.8,0,56,0,30.7,0,68.3,0,27.5,0,29.3,0,30.4,0
2004/8/4,15:30,31.8,0,58,0,30.7,0,68.3,0,27.5,0,29.3,0,30.5,0
2004/8/4,15:45,31.7,0,60,0,30.7,0,68.4,0,27.6,0,29.4,0,30.6,0
2004/8/4,16:00,31.2,0,59,0,30.8,0,68.2,0,27.6,0,29.4,0,30.7,0
2004/8/4,16:15,31,0,59,0,30.9,0,69.3,0,27.7,0,29.5,0,30.7,0
2004/8/4,16:30,30.9,0,59,0,30.9,0,69.5,0,27.5,0,29.5,0,30.8,0
2004/8/4,16:45,30.8,0,60,0,31,0,70.2,0,27.6,0,29.6,0,30.9,0
2004/8/4,17:00,30.9,0,61,0,31,0,70.4,0,27.6,0,29.6,0,30.9,0
2004/8/4,17:15,31,0,60,0,31,0,70.5,0,27.2,0,29.7,0,31,0
2004/8/4,17:30,30.5,0,62,0,31.1,0,70.5,0,27.2,0,29.7,0,31.1,0
2004/8/4,17:45,29.8,0,68,0,31.1,0,70.4,0,27.3,0,29.8,0,31.2,0
2004/8/4,18:00,29.4,0,69,0,31.1,0,70.5,0,27.3,0,29.9,0,31.2,0
2004/8/4,18:15,29.2,0,70,0,31.1,0,70.1,0,27.4,0,29.9,0,31.2,0
2004/8/4,18:30,29.2,0,68,0,31.1,0,69.8,0,27.5,0,29.9,0,31.3,0
2004/8/4,18:45,29.1,0,68,0,31.1,0,69.6,0,27.5,0,30,0,31.3,0
2004/8/4,19:00,29,0,67,0,31.1,0,69.4,0,27.6,0,30,0,31.3,0
2004/8/4,19:15,29,0,67,0,31,0,69.2,0,27.7,0,30,0,31.3,0
2004/8/4,19:30,28.8,0,67,0,31,0,68.7,0,27.7,0,30,0,31.3,0
2004/8/4,19:45,28.5,0,66,0,30.9,0,68.5,0,27.8,0,30,0,31.2,0
2004/8/4,20:00,28.3,0,69,0,30.8,0,68.3,0,27.8,0,30,0,31.1,0
2004/8/4,20:15,28.1,0,69,0,30.8,0,67.9,0,27.9,0,30,0,31,0
2004/8/4,20:30,28,0,70,0,30.7,0,68.2,0,27.9,0,29.9,0,30.9,0
2004/8/4,20:45,27.9,0,71,0,30.6,0,68.1,0,28,0,29.9,0,30.9,0
2004/8/4,21:00,27.7,0,72,0,30.6,0,68.3,0,28,0,29.9,0,30.7,0
2004/8/4,21:15,27.6,0,73,0,30.5,0,68.2,0,28.1,0,29.9,0,30.7,0
2004/8/4,21:30,27.6,0,72,0,30.5,0,68.3,0,28.2,0,29.8,0,30.6,0
2004/8/4,21:45,27.5,0,73,0,30.4,0,68.3,0,28.2,0,29.8,0,30.5,0
2004/8/4,22:00,27.6,0,72,0,30.4,0,68.6,0,28.2,0,29.8,0,30.4,0
2004/8/4,22:15,27.6,0,73,0,30.3,0,68.6,0,28.3,0,29.8,0,30.3,0
2004/8/4,22:30,27.5,0,73,0,30.2,0,68.5,0,28.3,0,29.7,0,30.3,0
2004/8/4,22:45,27.6,0,73,0,30.2,0,68.6,0,28.4,0,29.7,0,30.2,0
2004/8/4,23:00,27.5,0,73,0,30.2,0,68.8,0,27.4,0,29.7,0,30.1,0
2004/8/4,23:15,27.5,0,74,0,30.2,0,68.9,0,27.4,0,29.7,0,30,0
2004/8/4,23:30,27.2,0,76,0,30.2,0,69.3,0,27.5,0,29.6,0,29.9,0
2004/8/4,23:45,27.1,0,76,0,30.2,0,68.8,0,27.5,0,29.6,0,29.9,0
2004/8/5,0:00,26.9,0,77,0,30.2,0,69.2,0,27.6,0,29.6,0,29.8,0
2004/8/5,0:15,26.7,0,78,0,30.2,0,69.4,0,27.6,0,29.6,0,29.8,0
2004/8/5,0:30,26.8,0,77,0,30.2,0,69.7,0,27.7,0,29.6,0,29.7,0